GFSWCAN_sfc_rhum_306.txt.gz
RH
74 73 74 77 83 84 92 85 89 89 95 94 93 88 84 78 82 86 93 79 69 88 80 56 39 42 47 48 88 58 67 69 92 100 82 75 56 52 43 38 46 48 68 78 62 93 60 26 27 30 42 41 38 36
74 73 72 76 80 84 90 89 85 87 96 93 91 89 88 86 86 80 92 64 70 93 89 61 60 57 49 44 57 58 57 50 65 88 78 71 70 68 47 53 42 51 44 54 50 47 47 39 40 40 39 41 40 41
71 74 76 77 79 82 89 91 87 88 96 93 89 87 87 87 82 87 95 81 82 97 78 57 60 58 52 57 61 90 64 48 50 57 69 64 52 48 63 43 49 45 43 58 52 46 40 44 42 39 36 40 40 42
74 75 77 78 80 82 88 90 90 94 94 91 88 84 85 85 81 86 90 96 92 92 96 72 52 59 53 59 57 54 55 61 59 51 87 84 71 51 51 44 41 40 44 45 50 48 47 44 41 40 40 40 40 37
75 76 75 76 82 81 87 88 93 94 94 91 87 87 86 81 83 91 93 95 91 84 85 77 57 53 56 58 53 56 57 57 60 91 95 82 58 58 52 45 44 41 46 46 40 41 40 44 42 39 41 40 40 41
76 76 76 79 82 79 87 92 95 93 92 90 89 90 89 87 82 86 100 91 63 49 91 88 59 58 58 56 57 59 56 65 74 85 77 59 59 60 66 45 48 42 45 44 44 40 40 43 40 36 42 42 39 38
77 77 76 84 82 78 88 95 93 91 91 91 91 90 88 86 89 98 80 61 64 52 87 79 70 57 59 55 62 70 64 81 72 81 75 58 54 59 61 42 44 46 44 46 45 47 54 44 46 40 39 38 40 37
78 77 81 82 83 87 91 94 92 92 93 93 90 92 92 90 87 92 68 75 61 55 60 86 80 67 58 73 80 62 82 77 80 68 61 55 55 54 61 49 51 47 48 47 46 40 44 42 40 38 35 36 40 42
77 79 82 83 87 88 93 92 93 94 92 92 92 91 92 96 97 82 79 72 60 59 91 81 75 93 58 71 69 69 71 98 69 86 65 54 53 62 43 51 50 50 49 49 42 39 39 43 42 42 42 40 38 30
77 79 81 85 89 93 93 93 91 90 88 90 87 96 100 95 79 85 80 93 98 85 82 78 60 85 60 64 83 81 79 68 82 60 54 67 39 55 48 45 47 46 42 42 52 54 51 51 48 42 32 29 31 32
78 79 83 87 93 93 92 90 87 88 84 92 97 98 84 83 89 86 95 82 70 69 62 68 60 66 60 70 76 63 73 60 69 56 59 56 50 63 50 49 45 43 41 40 42 43 40 43 38 34 34 34 35 34
81 83 87 93 92 91 88 87 86 86 89 84 81 73 77 76 80 76 76 59 54 54 71 66 66 65 69 58 62 62 59 60 53 56 76 63 76 59 54 51 48 47 46 43 40 38 34 30 31 32 34 35 37 39
86 90 93 90 89 87 86 87 77 71 60 53 66 79 73 74 98 72 88 61 79 70 73 69 87 65 62 60 77 70 90 75 54 92 62 62 65 58 54 50 46 40 40 37 33 32 36 37 37 36 38 40 41 40
93 90 88 87 87 87 87 80 68 55 48 69 72 98 84 84 58 48 45 55 64 70 64 62 80 78 66 69 62 76 68 65 80 84 66 81 66 60 53 48 44 41 39 38 37 35 36 38 40 46 72 67 63 53
90 90 88 89 88 86 82 75 72 61 71 70 63 90 71 65 62 65 62 63 59 56 62 73 66 66 75 89 64 71 86 82 69 70 82 78 64 56 51 45 44 51 63 44 40 66 77 66 61 75 75 57 56 85
88 91 88 84 82 81 79 72 70 74 85 72 73 82 71 76 90 80 68 74 55 54 55 55 58 62 64 62 73 76 63 68 78 86 86 70 62 56 47 46 46 40 39 38 46 56 72 81 83 94 90 90 87 91
84 94 87 87 78 80 76 68 76 100 88 79 95 74 72 66 82 74 65 67 53 58 88 60 86 61 62 62 60 61 81 88 89 86 65 54 52 47 47 42 41 40 39 42 46 55 81 84 86 88 84 84 87 77
92 89 79 70 61 75 77 75 72 70 88 80 89 85 72 71 78 72 65 61 60 59 55 65 65 65 76 58 68 86 88 84 70 62 54 48 48 45 34 36 38 38 44 64 64 83 84 82 61 58 63 58 67 67
83 73 70 71 65 78 84 80 66 85 85 65 62 59 62 68 65 62 62 60 58 56 73 65 66 63 68 72 80 81 77 67 66 61 53 47 41 39 38 41 41 42 52 61 52 55 57 56 58 58 59 52 56 58
76 76 75 78 78 96 86 77 59 64 69 63 51 57 58 64 64 71 68 63 61 67 78 78 80 85 82 73 72 70 62 57 56 63 61 53 53 42 44 43 45 44 51 53 59 71 61 62 60 53 49 55 66 72
60 65 70 68 72 74 70 70 75 64 52 61 54 46 59 54 63 71 68 59 76 78 81 82 89 86 73 71 62 56 55 49 52 50 50 60 46 40 43 45 46 48 50 56 59 71 72 67 65 56 70 80 77 76
60 67 57 60 72 74 71 59 67 67 70 61 57 53 70 81 78 73 60 75 78 81 78 81 77 70 66 62 56 48 46 42 40 43 53 51 50 49 51 52 48 61 58 63 55 73 70 62 59 59 76 83 70 69
66 64 65 61 86 79 79 53 64 71 90 66 54 56 62 68 56 48 80 68 76 73 69 65 61 59 58 52 45 45 45 38 44 47 45 44 44 48 50 59 54 66 64 66 60 65 71 71 61 79 76 75 75 80
66 76 82 78 71 94 62 69 50 58 58 57 55 59 63 63 52 69 79 80 73 57 60 61 56 60 54 50 54 51 47 41 47 50 50 52 57 62 58 62 58 59 60 62 65 73 72 85 79 69 79 81 80 82
81 78 72 76 63 71 74 73 68 64 75 64 63 69 74 61 75 78 85 82 70 72 67 55 55 52 61 60 57 62 61 47 51 61 66 56 66 69 72 72 73 69 69 86 90 94 88 82 81 80 75 80 80 80
81 81 69 68 75 69 68 77 78 76 72 76 76 68 62 66 68 85 81 80 83 77 93 88 78 61 51 49 52 47 56 56 54 60 72 64 67 79 85 84 82 82 70 83 94 90 75 74 77 78 80 76 76 85
77 80 62 49 51 55 74 69 55 66 71 74 77 74 64 65 72 74 68 64 63 66 59 56 55 57 58 56 60 64 63 63 64 69 74 74 75 76 84 93 88 81 73 80 87 86 82 80 81 80 83 81 80 85
69 67 74 82 74 58 75 69 66 70 72 60 59 64 64 67 76 70 61 65 68 58 56 53 45 45 50 62 72 77 80 82 86 79 75 74 74 82 86 84 84 83 82 84 86 82 80 82 83 84 83 84 84 84
87 76 70 90 84 86 90 81 77 70 55 59 78 81 87 84 88 77 69 66 65 65 65 69 82 84 79 77 83 78 85 87 89 84 85 89 91 91 86 87 86 84 84 82 79 78 78 84 84 86 83 87 86 84
86 71 84 85 87 92 95 89 89 90 72 73 73 72 77 88 87 73 71 68 71 94 100 99 99 100 96 95 96 97 97 100 98 97 90 86 90 92 92 92 90 86 86 87 85 77 74 82 82 84 83 82 82 80
71 77 84 81 90 91 93 88 87 82 84 83 82 83 83 90 87 79 72 78 87 100 100 95 96 100 94 93 97 97 96 96 93 92 92 94 92 91 91 89 87 87 87 86 84 83 82 83 82 82 80 80 78 79
84 80 78 84 89 83 84 82 80 82 78 81 80 76 80 76 73 89 90 96 100 100 100 99 97 98 99 96 94 94 93 92 95 93 93 91 92 89 86 83 88 86 86 85 84 84 81 80 82 80 80 77 77 75
82 80 77 76 73 69 73 72 57 63 69 70 83 85 85 74 75 91 87 95 100 96 86 90 94 92 87 86 93 95 96 93 94 90 89 86 86 85 87 88 88 87 84 84 84 83 77 76 78 75 75 78 76 76

GFSWCAN_sfc_rhum_312.txt.gz
RH
72 71 73 76 75 74 72 74 82 80 83 87 86 84 91 93 90 97 99 97 95 96 78 70 49 37 34 39 76 54 66 69 94 100 80 76 61 57 44 35 43 53 71 87 73 99 72 20 20 27 44 36 30 34
72 71 71 75 75 74 72 76 81 80 83 90 85 86 89 92 92 97 99 96 92 97 91 63 51 47 42 30 51 57 59 51 73 95 79 71 81 73 50 60 28 52 48 67 58 60 43 24 39 34 31 38 37 41
72 71 71 73 74 74 72 77 82 83 86 90 86 89 92 94 93 96 98 98 96 98 92 87 62 46 42 46 44 80 53 41 43 41 62 70 63 57 72 53 40 30 32 65 52 37 36 36 32 29 30 36 36 40
72 71 70 72 74 74 74 79 83 87 91 94 90 89 92 93 93 95 97 98 96 98 100 77 47 47 40 40 44 44 42 47 43 44 84 85 80 40 63 39 41 33 35 40 43 36 38 35 33 30 34 36 37 39
78 72 71 72 74 73 78 81 86 89 94 94 94 92 93 92 92 96 98 98 97 95 99 88 48 44 42 40 39 41 46 49 55 83 94 82 48 54 45 39 47 35 41 46 54 36 40 40 35 35 38 37 35 37
79 75 72 72 71 73 76 80 84 89 92 90 92 95 94 93 94 96 100 94 96 96 98 97 59 50 45 43 41 42 42 49 65 79 69 51 50 66 78 61 30 32 29 35 39 32 40 40 38 34 38 39 36 36
78 76 74 73 75 76 77 81 83 88 88 87 95 94 94 94 95 98 95 86 91 93 97 92 76 48 44 46 45 57 52 63 57 74 74 52 48 67 81 60 36 35 34 35 39 44 49 39 43 39 39 35 38 33
76 76 76 78 77 76 78 84 85 87 85 89 96 94 94 90 94 96 96 86 87 92 92 97 89 68 46 69 74 52 77 70 70 62 51 51 57 62 84 42 35 34 36 39 39 35 42 42 40 37 33 33 36 36
76 76 76 77 74 75 78 85 83 86 84 95 94 94 96 97 100 99 96 92 95 94 99 94 80 93 51 59 58 59 62 96 62 89 65 58 69 77 48 42 36 39 42 42 37 40 40 42 38 35 35 36 35 26
75 76 76 73 74 76 81 84 83 82 90 95 96 97 100 99 93 91 93 99 100 99 98 82 49 80 57 56 72 82 81 74 90 66 52 79 61 44 40 37 38 40 38 40 51 52 47 43 42 40 37 29 28 27
75 74 72 72 75 78 83 80 81 86 96 94 98 99 96 93 93 97 100 100 99 98 73 58 54 60 47 66 67 53 73 60 73 62 68 73 67 60 40 40 41 40 38 39 39 40 37 43 41 37 32 29 29 32
74 74 74 75 77 79 81 80 84 97 95 93 94 96 98 95 100 100 100 96 88 75 59 65 59 52 49 41 58 55 53 57 63 55 81 72 84 48 42 45 43 40 40 39 38 41 40 34 35 35 32 32 35 40
75 75 76 77 78 81 81 82 96 92 85 74 85 97 96 99 100 99 100 88 80 63 55 58 78 59 51 54 73 69 88 78 56 96 74 81 62 47 47 43 42 41 44 44 40 35 35 34 33 38 37 36 34 39
76 76 77 78 82 82 79 88 90 81 84 89 97 100 95 99 79 67 65 64 57 55 55 63 73 75 65 70 69 80 62 62 81 84 74 84 60 52 47 48 48 50 47 43 40 37 39 44 49 58 64 63 64 56
77 77 80 83 82 79 84 94 84 96 89 97 79 93 82 60 64 63 56 54 51 52 63 74 66 67 75 85 63 70 81 81 69 78 87 75 60 56 58 56 54 58 66 54 58 72 79 70 72 78 69 64 68 93
80 82 79 83 78 86 94 92 94 80 71 67 63 76 68 78 88 74 66 70 55 60 57 54 57 62 66 66 71 86 71 78 87 92 83 68 63 60 57 55 55 48 54 62 63 66 78 89 92 91 93 93 95 94
76 70 78 79 92 92 88 93 91 100 86 74 93 81 77 80 87 74 67 66 55 59 81 68 85 64 60 63 60 56 92 99 91 84 70 59 60 57 53 51 56 51 53 54 57 62 79 83 93 91 90 80 81 74
75 83 82 94 88 87 93 82 90 92 94 98 96 85 77 80 79 72 67 60 60 61 57 64 62 59 88 57 77 94 93 85 74 70 65 57 54 54 48 49 47 48 56 65 71 81 87 82 66 71 55 55 71 78
91 93 90 87 84 93 99 93 76 95 99 99 83 75 77 82 73 70 68 59 56 51 67 57 64 59 70 76 86 84 79 74 74 68 62 57 58 60 55 53 56 62 66 64 60 65 62 54 60 57 56 54 59 64
89 86 83 84 80 99 99 91 70 90 95 96 84 78 77 76 69 74 66 60 56 62 77 76 84 89 77 76 74 74 71 66 63 69 70 64 59 54 56 57 59 58 57 57 62 64 58 61 57 51 55 57 69 75
85 89 84 81 82 75 77 88 84 85 82 93 75 68 73 67 70 73 66 55 74 72 83 84 92 80 71 73 70 65 64 61 65 63 61 66 57 52 54 54 53 53 53 60 67 65 64 72 64 55 76 82 78 73
90 76 72 64 80 78 84 61 80 69 73 73 65 61 74 95 88 73 58 76 81 88 83 86 79 72 69 67 65 62 63 60 59 59 59 55 56 54 54 52 50 61 64 64 58 73 68 61 59 63 76 83 69 69
73 68 74 70 95 88 86 65 72 60 78 67 55 63 70 72 60 53 81 74 90 88 75 68 67 64 65 64 62 61 57 54 55 54 54 53 52 52 51 57 58 69 67 56 56 65 75 70 73 77 73 73 74 82
67 87 99 96 77 93 63 81 52 56 57 63 69 81 80 75 60 72 85 86 91 69 66 67 65 66 63 59 62 60 58 53 55 55 54 55 59 61 56 58 54 53 57 56 62 71 73 81 77 68 79 81 82 84
85 93 94 86 79 86 84 85 67 65 78 73 80 87 84 70 87 85 84 89 85 77 72 65 65 63 68 68 64 61 57 56 60 63 61 61 64 66 69 66 68 61 66 81 80 81 82 82 79 77 74 78 76 78
88 80 81 81 86 82 77 88 78 74 75 86 75 62 66 81 90 92 83 87 87 81 86 83 77 68 64 58 59 58 62 58 60 68 69 67 75 82 84 84 80 73 66 81 84 80 74 73 75 76 77 73 75 78
80 76 54 43 51 56 74 72 57 74 76 78 76 80 77 84 86 92 80 76 77 75 72 65 63 61 61 61 60 61 58 60 65 72 74 75 74 74 85 90 85 78 70 76 80 81 80 78 77 76 79 76 77 82
67 67 76 80 76 58 75 80 89 77 69 55 65 72 72 75 85 89 78 73 74 65 60 56 54 57 63 75 82 86 85 83 82 78 76 77 78 86 90 86 83 81 83 85 84 83 80 80 80 79 80 81 84 83
80 70 73 89 84 82 85 82 77 63 57 65 80 84 90 86 90 81 75 67 62 60 63 71 78 79 76 74 80 81 84 83 84 88 86 89 89 88 83 84 84 82 83 86 86 84 78 82 82 81 77 79 78 78
84 64 81 82 84 89 90 85 88 84 71 75 77 80 90 98 85 68 66 65 70 87 93 90 92 94 97 95 94 98 100 100 100 95 89 86 91 89 84 84 86 86 84 84 84 88 88 85 80 88 88 81 80 87
63 70 75 77 93 96 95 97 93 86 84 84 85 86 91 91 80 74 77 87 93 98 96 98 97 99 98 96 94 95 98 93 93 99 97 98 92 90 85 83 85 85 84 83 83 81 80 79 78 78 77 78 78 78
80 74 80 85 93 95 97 89 90 93 92 93 96 92 90 86 90 92 99 99 93 93 93 94 94 93 93 94 99 100 94 90 89 86 84 84 84 82 84 84 85 83 84 84 82 82 78 76 80 78 79 78 79 79
85 84 84 86 84 89 87 88 84 93 91 90 87 82 83 80 84 92 93 99 97 97 98 100 96 96 97 97 99 99 92 95 90 83 79 78 79 82 87 87 86 85 83 83 82 80 76 74 78 77 78 81 80 79

GFSWCAN_sfc_rhum_318.txt.gz
RH
70 72 74 74 76 80 77 81 74 80 82 83 84 86 84 86 90 94 95 95 98 100 96 90 61 60 70 73 84 70 74 79 96 83 85 89 84 74 68 59 60 65 77 91 92 88 75 42 30 35 43 52 61 65
72 73 74 74 78 80 81 78 76 80 82 84 85 87 86 83 91 89 96 98 99 100 99 91 85 64 57 62 78 80 68 79 88 91 93 89 86 91 72 82 57 59 62 77 74 74 56 55 47 51 49 54 69 67
73 75 75 75 79 81 82 81 80 80 82 84 85 85 82 81 90 89 93 99 99 100 98 93 85 70 59 64 62 84 88 74 88 74 93 87 69 82 86 77 65 54 61 79 66 60 55 51 46 48 54 64 64 60
74 75 76 76 77 79 81 81 81 80 80 82 85 85 83 82 90 88 98 99 96 98 100 94 71 72 62 59 64 60 60 67 71 78 95 96 87 72 79 60 63 57 57 64 63 62 55 50 50 64 64 62 55 53
77 76 76 76 76 78 80 81 80 80 80 83 85 84 81 79 89 90 96 98 96 97 98 97 81 71 65 63 62 59 62 71 87 95 97 93 88 74 79 71 74 57 59 68 70 56 58 58 60 59 60 60 53 47
78 77 76 77 77 78 79 80 80 80 79 84 84 82 79 82 89 95 100 96 99 97 99 99 93 85 70 65 71 69 72 88 95 94 96 89 79 73 88 74 50 52 54 51 52 57 58 62 56 51 52 50 46 38
82 80 77 76 76 77 78 79 80 80 81 86 80 79 81 90 95 96 98 98 91 97 99 99 99 90 81 76 88 85 80 92 90 95 94 84 73 85 93 67 52 58 58 60 57 53 60 58 61 49 48 39 37 35
78 80 79 77 76 76 76 76 80 80 85 79 78 82 86 91 88 94 93 97 91 98 97 100 100 98 85 95 93 85 93 92 94 93 88 80 81 93 97 75 61 61 60 57 59 56 59 52 48 44 34 31 36 39
78 79 78 78 77 76 77 77 78 79 82 78 82 85 97 97 99 92 94 97 97 96 99 98 98 99 92 90 89 89 93 96 92 97 86 82 86 82 65 68 59 58 57 63 57 51 47 50 48 41 33 36 44 45
77 78 79 79 78 77 75 76 79 80 78 79 95 99 100 98 94 98 98 100 100 100 99 97 90 99 89 86 97 95 98 96 97 93 88 93 86 68 58 56 53 61 57 53 61 62 56 56 53 39 37 43 48 52
74 75 78 80 79 77 76 78 80 78 82 100 100 100 96 90 96 99 100 100 100 100 99 95 88 93 78 92 97 92 97 94 94 85 86 90 95 80 60 64 63 56 52 53 50 49 47 51 46 50 56 57 58 59
75 76 79 80 79 78 77 77 78 92 98 94 95 96 97 97 100 99 99 100 99 98 98 90 86 87 92 91 94 92 86 91 86 90 93 93 91 76 71 68 62 58 56 54 50 49 44 43 49 56 63 67 68 65
75 76 79 80 79 78 78 79 81 80 88 98 99 99 98 100 99 98 98 100 99 98 92 81 90 91 81 81 94 88 83 89 87 94 89 91 84 74 66 61 63 54 50 47 44 45 51 55 55 60 72 73 67 69
76 78 80 79 79 78 78 79 80 84 98 100 100 99 98 99 98 96 93 94 93 89 74 75 96 94 96 91 93 77 85 86 93 100 88 96 84 75 66 60 56 56 53 54 56 58 62 68 76 76 79 78 75 79
76 78 79 79 80 80 81 84 84 95 100 100 100 98 99 92 93 93 91 86 80 66 75 94 92 91 97 93 92 91 92 92 88 90 95 94 82 73 69 63 62 68 71 68 64 68 75 77 78 85 84 80 81 93
78 79 80 79 79 79 81 89 94 98 100 100 98 98 97 94 98 94 81 83 64 64 75 86 89 90 90 91 90 88 87 88 89 98 95 82 75 70 66 65 67 68 69 71 72 78 82 84 83 88 90 88 90 90
76 87 78 79 78 80 84 95 98 100 100 100 98 95 95 90 83 84 76 73 58 63 89 91 82 73 92 94 91 93 90 94 98 94 83 69 70 71 69 70 72 70 73 75 76 77 82 81 87 84 91 93 91 89
75 78 78 78 80 86 96 96 100 100 99 99 99 100 95 92 88 88 86 65 65 91 86 80 89 86 89 83 97 99 99 94 88 80 74 69 69 66 62 69 70 72 74 73 73 80 84 82 73 79 81 88 90 89
81 80 79 80 77 98 99 99 100 99 99 99 96 96 96 96 93 88 83 81 85 86 89 92 81 92 95 98 96 96 90 83 83 78 76 70 68 70 70 72 72 71 70 71 71 74 80 83 89 88 86 81 89 96
79 80 78 76 85 99 99 100 98 100 99 99 94 95 95 96 94 87 84 88 87 90 92 95 98 98 98 96 88 84 80 75 75 81 81 77 76 74 72 67 69 70 70 74 81 82 82 82 82 84 86 88 92 97
81 82 77 78 99 98 99 100 100 99 99 99 96 92 90 87 90 91 91 89 90 94 98 99 100 98 92 88 80 76 75 70 70 68 76 86 79 74 72 70 69 72 78 77 85 89 84 87 92 88 92 97 97 97
90 80 96 97 99 100 100 100 99 99 99 99 96 90 94 94 95 92 84 89 99 100 98 98 93 86 83 81 78 74 76 71 71 74 76 73 73 69 72 78 76 81 81 87 84 88 92 90 91 90 94 98 96 94
85 94 99 100 99 96 100 97 98 100 98 99 95 97 98 97 87 78 97 95 99 99 92 86 87 83 83 79 73 70 67 67 72 72 69 67 67 74 78 81 77 84 91 90 81 85 90 90 92 95 94 95 94 99
89 99 99 99 93 98 98 100 99 99 98 97 96 97 97 90 81 89 95 98 99 90 84 80 77 80 76 72 75 72 70 68 72 74 72 73 80 83 79 83 82 82 85 82 82 86 89 95 96 90 96 98 98 98
98 98 95 98 98 95 97 98 96 91 97 98 96 98 97 93 94 94 95 98 98 93 84 78 78 76 80 80 78 80 71 68 74 82 80 77 82 83 89 91 91 91 84 91 92 92 97 96 95 94 96 98 94 98
94 95 96 97 100 93 97 99 98 99 97 97 98 98 94 92 93 97 97 94 96 93 87 85 84 81 77 73 78 76 79 74 74 81 80 74 77 82 88 93 96 100 90 85 90 93 94 95 95 93 96 97 99 99
96 95 80 74 94 93 98 94 90 93 96 97 98 99 92 95 98 98 96 98 92 84 80 77 73 74 77 82 85 82 77 73 73 81 86 84 82 79 81 88 93 96 88 88 88 88 91 93 96 97 99 100 100 98
96 87 92 91 95 91 98 97 97 97 98 96 93 91 90 90 97 96 94 85 85 76 76 78 75 75 79 86 90 93 95 92 92 90 90 93 96 95 93 94 92 92 90 88 91 92 92 93 96 97 99 100 100 100
97 94 86 97 96 96 97 97 97 96 92 94 95 97 98 98 97 91 86 79 72 74 84 94 96 90 90 88 88 87 85 83 84 92 98 99 99 100 99 94 93 92 92 93 95 94 91 93 93 94 95 98 98 100
96 86 96 96 96 97 98 98 98 98 93 93 93 96 96 95 88 78 76 75 79 85 87 89 89 87 91 92 95 95 98 87 79 82 92 96 97 96 96 94 94 94 91 88 92 94 98 99 100 99 99 100 99 99
89 91 95 96 97 98 98 98 97 95 93 91 86 88 94 97 90 86 82 82 85 88 89 90 88 86 87 88 89 90 96 100 87 87 88 92 93 94 92 91 91 90 89 91 95 99 100 100 100 100 100 100 100 100
95 92 91 94 97 98 97 97 96 95 93 92 96 94 92 86 97 99 99 88 87 86 84 84 88 90 84 86 91 93 94 97 95 92 90 90 92 92 92 92 94 94 95 96 97 98 98 98 100 100 100 100 100 100
95 92 90 94 97 97 96 96 95 97 96 96 97 97 99 97 97 99 100 97 82 83 84 84 89 90 88 88 93 92 92 96 97 91 88 87 87 89 92 94 94 93 94 95 94 96 97 99 100 100 100 100 100 100

GFSWCAN_sfc_rhum_321.txt.gz
RH
67 70 73 74 74 74 74 74 79 80 79 80 80 82 86 88 84 93 96 96 96 99 94 94 68 69 81 72 88 71 75 80 90 82 86 89 84 77 65 59 60 64 80 91 91 86 73 49 31 36 44 58 63 68
71 73 74 75 76 75 74 79 80 81 81 75 77 83 88 85 81 89 99 94 94 99 98 94 85 80 58 58 67 79 67 72 78 90 91 91 86 92 72 76 61 60 63 77 73 73 58 53 38 54 52 58 70 66
72 74 75 76 77 77 75 81 81 85 85 80 75 84 86 84 82 85 93 96 94 99 95 96 92 71 62 59 54 83 84 73 79 74 90 84 60 82 86 77 69 58 63 78 63 55 59 52 50 53 55 67 67 63
72 75 76 78 78 78 80 84 82 87 84 76 77 86 86 82 80 82 97 95 92 99 100 94 74 77 70 64 61 55 60 75 79 91 94 95 88 74 81 63 67 60 66 70 67 65 59 52 51 66 71 64 59 60
75 76 77 78 78 79 81 83 83 83 76 78 81 84 84 80 78 92 96 96 87 98 100 98 86 76 72 69 65 68 65 68 85 93 96 92 88 80 85 76 79 64 63 70 68 57 58 59 65 69 65 62 56 50
77 77 78 79 78 79 80 81 79 80 81 82 83 85 83 80 81 99 100 94 94 98 100 100 96 87 80 80 79 82 83 88 94 92 95 92 82 74 90 83 57 57 57 54 47 60 67 72 67 58 56 49 43 41
78 79 78 79 79 79 80 81 82 82 82 83 84 86 84 81 96 98 95 95 84 92 100 100 99 91 87 84 93 91 86 94 90 96 94 86 81 82 90 69 38 55 58 65 63 60 66 65 65 52 42 41 42 40
79 79 79 78 79 79 80 82 83 82 83 84 85 84 80 81 92 97 86 93 94 97 99 100 99 98 86 97 97 92 95 92 94 92 91 80 88 94 92 74 52 63 67 66 67 62 63 57 46 42 38 39 43 46
79 78 80 79 79 80 79 81 81 82 82 84 79 81 95 98 99 88 84 94 96 99 100 99 98 99 92 96 95 96 91 98 93 96 88 81 87 80 64 73 68 68 60 69 62 56 51 47 41 41 42 45 49 51
81 80 80 79 78 78 79 80 79 81 80 82 94 98 100 98 87 84 95 99 100 100 100 99 95 100 90 94 99 97 98 95 89 86 93 94 87 67 54 63 60 65 62 56 65 68 59 52 47 47 46 48 52 56
80 79 80 80 79 78 78 78 79 80 84 98 100 99 96 81 92 98 100 100 100 100 99 94 94 97 92 96 99 93 96 94 89 78 89 92 90 83 57 65 68 62 55 55 53 52 48 45 48 56 59 59 61 62
76 77 78 79 78 79 79 79 79 88 97 91 94 95 99 98 100 99 98 99 99 98 99 94 93 97 100 96 97 97 96 96 84 91 94 93 87 78 76 76 69 61 62 57 53 56 49 50 55 60 63 64 66 69
76 79 79 78 79 79 78 77 78 78 86 95 96 100 100 100 99 98 98 98 99 99 95 87 96 94 92 94 99 99 99 95 91 95 90 89 82 83 78 69 68 61 60 56 52 51 58 63 64 68 67 65 68 66
78 78 78 79 80 80 79 78 79 84 97 99 99 98 95 99 96 96 93 95 93 97 78 78 97 93 96 93 94 86 86 90 95 99 88 92 91 83 73 65 61 61 60 61 63 62 68 75 77 71 70 74 72 70
75 76 76 80 81 80 79 78 80 92 100 99 100 98 97 92 94 94 92 95 94 70 77 92 92 91 98 93 90 92 95 93 91 87 90 95 86 74 71 68 66 69 72 69 68 77 83 81 79 81 75 69 71 85
75 77 80 78 81 80 79 79 97 98 100 100 100 99 98 93 98 97 95 93 71 72 87 88 87 89 90 92 89 87 85 88 84 95 98 86 78 74 72 69 68 66 66 72 76 78 82 84 84 88 87 85 87 87
76 81 76 80 80 79 80 98 100 99 99 100 99 99 97 89 92 96 87 82 65 66 91 93 91 85 94 94 92 90 90 90 98 96 87 75 74 74 72 71 71 69 73 75 74 74 81 79 79 77 84 85 80 86
78 76 80 81 81 91 98 98 99 99 99 98 99 99 97 94 94 95 90 71 68 92 87 83 90 93 90 82 93 96 99 97 89 85 80 74 73 72 67 70 69 69 74 75 75 76 75 73 71 77 84 90 93 90
76 79 80 78 82 95 97 100 99 99 96 99 99 98 97 96 94 91 87 84 86 88 86 91 81 88 89 93 98 98 94 87 87 84 81 74 73 75 73 72 71 74 74 72 64 63 66 71 82 87 88 84 93 96
79 78 78 76 87 100 99 99 98 99 99 100 100 96 97 97 96 90 89 88 86 90 89 92 95 97 98 96 95 89 83 79 79 85 87 83 78 73 71 68 69 66 68 74 81 84 85 90 87 82 82 88 94 97
81 82 74 88 97 98 99 99 99 99 100 100 99 92 92 93 93 89 86 87 92 95 99 99 100 99 94 90 83 79 79 73 73 71 79 86 75 70 70 66 60 62 71 79 87 89 86 90 92 84 92 97 96 94
83 71 96 95 99 99 99 99 100 100 100 100 99 97 95 95 94 92 85 90 99 100 99 99 96 88 86 83 81 76 77 74 74 76 76 71 74 68 65 67 72 84 85 86 81 87 92 91 88 89 95 98 95 97
78 89 99 99 97 96 100 99 99 100 99 99 98 95 98 98 92 79 97 95 99 99 94 90 89 84 85 80 75 74 71 72 77 73 69 68 67 70 73 78 77 85 90 88 82 88 93 89 92 95 94 93 94 99
89 97 98 98 96 99 99 99 100 99 98 97 95 98 98 95 82 91 95 99 100 90 88 85 81 82 78 75 80 80 77 71 73 72 71 74 78 83 80 81 80 82 81 82 84 89 91 94 94 90 94 96 99 99
83 97 96 98 99 97 97 98 97 92 97 96 96 98 98 93 97 95 94 99 98 93 88 83 81 78 84 86 85 83 73 70 75 80 77 76 88 89 92 91 90 86 81 88 91 93 97 94 94 94 94 96 96 98
93 96 94 95 98 94 95 100 97 98 98 97 99 98 97 94 89 90 97 97 95 93 90 88 87 84 83 80 83 81 83 74 74 85 86 77 79 85 93 95 97 99 85 82 88 93 93 94 94 93 97 96 99 99
94 94 88 83 93 92 98 98 92 91 96 97 99 100 93 90 92 95 98 98 91 85 82 79 77 79 83 84 85 83 77 71 72 83 89 87 84 81 82 87 91 93 85 83 86 87 89 92 93 95 99 100 99 98
95 93 96 95 99 92 98 99 98 96 99 94 91 92 87 85 92 97 98 89 86 80 80 78 76 78 82 84 87 91 94 90 89 86 85 90 93 94 93 92 90 87 87 86 89 90 89 90 93 96 99 100 100 100
97 96 88 98 97 98 100 98 100 99 98 95 97 100 100 99 98 98 90 81 77 79 88 94 96 91 90 88 88 87 83 80 79 81 86 98 98 100 99 93 91 90 91 92 92 90 89 91 94 95 96 99 100 100
97 96 96 96 97 100 98 99 100 99 99 96 96 97 97 98 95 82 80 80 83 88 90 90 91 89 91 90 93 95 97 82 73 73 81 86 92 97 94 92 92 92 90 89 92 95 97 100 100 99 100 100 100 100
92 95 95 96 99 99 99 99 99 99 99 97 92 89 94 98 98 97 88 84 88 91 91 91 89 86 86 87 86 88 92 97 90 89 87 94 93 94 93 91 91 90 87 88 89 90 98 100 100 100 100 100 100 100
97 97 95 97 98 98 98 98 98 98 98 97 98 95 95 97 97 98 99 93 90 89 86 85 88 88 82 83 88 91 84 89 90 91 92 92 92 92 91 89 88 86 87 89 91 96 99 98 100 100 100 100 100 100
96 90 91 94 97 97 98 96 97 97 97 97 97 98 98 97 96 98 99 97 83 85 86 84 86 89 87 84 90 90 83 89 88 87 88 88 88 90 89 88 88 87 90 93 96 96 99 100 100 100 100 100 100 100